Zurück zum Katalog

USA 39

AktivMilitärGEO
NORAD 20066·PAYLOAD·🇺🇸 United States

Gestartet Jun 14, 1989 von Cape Canaveral Space Force Station

Loading…

TLE

AktuellSource: Space-Track

Epoche: Sep 14, 2026, 05:41 UTC

1 20066U 89046A   26257.23724421 -.00000109  00000-0  00000-0 0  9999
2 20066  12.8440 341.0771 0002598 253.1723 129.8818  0.98818868 26714

Verfolge USA 39 in Echtzeit mit AllMySat

Download on the App Store